SCP
0 0 0 0 0 0 0 0 0 0 0 0 0 0 0 0 0 0 0 0 0 0 0 0 0 0 0 0 0 0 0 0 0 0 0 0 0 0 0 0 0 0 0
0 0 0 0 0 0 0 0 0 0 0 0 0 0 0 0 0 0 0 0 0 0 0 0 0 0 0 0 0 0 0 0 0 0 0 0 0 0 0 0 0 0 0
0 0 0 0 0 0 0 0 0 0 0 0 0 0 0 0 0 0 0 0 0 0 0 0 0 0 0 0 0 0 0 0 0 0 0 0 0 0 0 0 0 0 0
0 0 0 0 0 0 0 0 0 0 0 0 0 0 0 0 0 0 0 0 0 0 0 0 0 0 0 0 0 0 0 0 0 0 0 0 0 0 0 0 0 0 0
0 0 0 0 0 0 0 0 0 0 0 0 0 0 0 0 0 0 0 0 0 0 0 0 0 0 0 0 0 0 0 0 0 0 0 0 0 0 0 0 0 0 0
0 0 0 0 0 0 0 0 0 0 0 0 0 0 0 0 0 0 0 0 0 0 0 0 0 0 0 0 0 0 0 0 0 0 0 0 0 0 0 0 0 0 0
0 0 0 0 0 0 0 0 0 0 0 0 0 0 0 0 0 0 0 0 0 0 0 0 0 0 0 0 0 0 0 0 0 0 0 0 0 0 0 0 0 0 0
0 0 0 0 0 0 0 0 0 0 0 0 0 0 0 0 0 0 0 0 0 0 0 0 0 0 0 0 0 0 0 0 0 0 0 0 0 0 0 0 0 0 0
0 0 0 0 0 0 0 0 0 0 0 0 0 0 0 0 0 0 0 0 0 0 0 0 0 0 0 0 0 0 0 0 0 0 0 0 0 0 0 0 0 0 0
0 0 0 0 0 0 0 0 0 0 0 0 0 0 0 0 0 0 0 0 0 0 0 0 0 0 0 0 0 0 0 0 0 0 0 0 0 0 0 0 0 0 0
0 0 0 0 0 0 0 0 0 0 0 0 0 0 0 0 0 0 0 0 0 0 0 0 0 0 0 0 0 0 0 0 0 0 0 0 0 0 0 0 0 0 0
0 0 0 0 0 0 0 0 0 0 0 0 0 0 0 0 0 0 0 0 0 0 0 0 0 0 0 0 0 0 0 0 0 0 0 0 0 0 0 0 0 0 0
0 0 0 0 0 0 0 0 0 0 0 0 0 0 0 0 0 0 0 0 0 0 0 0 0 0 0 0 0 0 0 0 0 0 0 0 0 0 0 0 0 0 0
0 0 0 0 0 0 0 0 0 0 0 0 0 0 0 0 0 0 0 0 0 0 0 0 0 0 0 0 0 0 0 0 0 0 0 0 0 0 0 0 0 0 0
0 0 0 0 0 0 0 0 0 0 0 0 0 0 0 0 0 0 0 0 0 0 0 0 0 0 0 0 0 0 0 0 0 0 0 0 0 0 0 0 0 0 0
0 0 0 0 0 0 0 0 0 0 0 0 0 0 0 0 0 0 0 0 0 0 0 0 0 0 0 0 0 0 0 0 0 0 0 0 0 0 0 0 0 0 0
0 0 0 0 0 0 0 0 0 0 0 0 0 0 0 0 0 0 0 0 0 0 0 0 0 0 0 0 0 0 0 0 0 0 0 0 0 0 0 0 0 0 0
0 0 0 0 0 0 0 0 0 0 0 0 0 0 0 0 0 0 0 0 0 0 0 0 0 0 0 0 0 0 0 0 0 0 0 0 0 0 0 0 0 0 0
0 0 0 0 0 0 0 0 0 0 0 0 0 0 0 0 0 0 0 0 0 0 0 0 0 0 0 0 0 0 0 0 0 0 0 0 0 0 0 0 0 0 0
0 0 0 0 0 0 0 0 0 0 0 0 0 0 0 0 0 0 0 0 0 0 0 0 0 0 0 0 0 0 0 0 0 0 0 0 0 0 0 0 0 0 0
0 0 0 0 0 0 0 0 0 0 0 0 0 0 0 0 0 0 0 0 0 0 0 0 0 0 0 0 0 0 0 0 0 0 0 0 0 0 0 0 0 0 0
0 0 0 0 0 0 0 0 0 0 0 0 0 0 0 0 0 0 0 0 0 0 0 0 0 0 0 0 0 0 0 0 0 0 0 0 0 0 0 0 0 0 0
0 0 0 0 0 0 0 0 0 0 0 0 0 0 0 0 0 0 0 0 0 0 0 0 0 0 0 0 0 0 0 0 0 0 0 0 0 0 0 0 0 0 0
0 0 0 0 0 0 0 0 0 0 0 0 0 0 0 0 0 0 0 0 0 0 0 0 0 0 0 0 0 0 0 0 0 0 0 0 0 0 0 0 0 0 0
0 0 0 0 0 0 0 0 0 0 0 0 0 0 0 0 0 0 0 0 0 0 0 0 0 0 0 0 0 0 0 0 0 0 0 0 0 0 0 0 0 0 0
0 0 0 0 0 0 0 0 0 0 0 0 0 0 0 0 0 0 0 0 0 0 0 0 0 0 0 0 0 0 0 0 0 0 0 0 0 0 0 0 0 0 0
Wind_Speed
8 5 4 5 5 5 6 7 8 9 8 7 7 6 6 5 5 6 8 8 8 8 7 5 5 6 5 5 6 5 6 5 5 4 6 7 6 4 8 10 9 8 9
9 6 5 6 6 6 7 8 8 9 8 7 6 6 6 5 5 5 7 8 8 7 7 7 5 5 5 6 6 5 4 4 5 4 5 5 6 5 10 7 6 8 6
11 8 7 7 7 7 7 8 9 10 11 10 8 7 5 5 4 5 4 6 7 7 7 7 6 6 5 4 5 5 5 4 5 4 3 4 5 8 5 6 8 6 7
12 9 9 8 7 6 7 8 8 9 8 7 7 7 6 5 4 3 4 6 7 7 6 6 6 5 4 5 5 6 4 5 4 4 3 4 7 6 7 5 5 9 9
12 10 10 9 7 6 7 7 8 8 8 8 8 8 6 5 4 4 5 5 5 6 6 6 5 5 4 4 5 5 5 3 4 4 4 6 6 6 10 12 7 6 6
13 11 9 9 7 7 7 7 8 9 9 9 8 8 8 7 6 6 4 4 4 4 5 5 5 4 3 4 4 4 6 5 5 4 4 5 5 7 8 14 15 11 6
13 12 11 9 8 7 7 7 8 9 8 9 8 8 8 8 7 5 5 4 3 3 4 5 4 4 4 4 4 4 6 6 6 5 5 5 6 7 8 11 14 16 10
12 12 10 9 8 8 7 7 8 8 8 8 7 7 7 5 4 5 4 4 3 3 4 4 4 5 5 5 5 4 5 6 6 8 7 6 6 6 7 8 12 17 15
13 12 11 10 9 8 8 8 8 8 8 7 7 7 6 6 5 5 4 3 3 3 4 4 5 5 5 5 6 4 6 7 6 7 8 7 6 6 6 6 7 11 19
13 13 11 10 9 8 8 8 8 8 7 7 6 6 5 5 5 5 5 4 4 4 4 5 5 6 6 6 5 5 6 7 7 7 8 8 7 6 6 6 6 6 11
14 13 11 10 9 9 8 8 8 7 7 6 6 6 5 4 4 4 4 4 4 4 4 5 5 6 6 6 6 7 9 8 8 9 11 11 11 8 7 6 6 6 7
12 12 11 11 10 9 8 7 7 7 6 6 7 6 4 4 4 4 4 4 4 4 5 5 6 7 7 7 7 9 9 8 10 12 12 13 12 11 9 7 7 7 8
12 11 11 10 10 9 8 8 7 7 6 6 6 5 5 4 4 4 4 4 4 5 5 5 6 7 7 7 7 8 7 8 10 12 13 14 14 13 9 8 8 8 11
13 12 11 10 9 9 8 8 8 7 7 6 6 5 4 4 3 3 4 4 5 5 6 6 6 7 7 8 8 7 7 8 9 11 13 14 14 13 11 11 10 10 12
13 13 12 10 10 9 8 8 8 7 7 6 6 5 3 2 2 3 4 5 5 7 6 6 7 7 7 8 10 8 9 8 10 12 13 14 19 23 19 16 12 13 12
12 12 11 11 10 9 9 9 8 7 7 6 6 4 2 2 2 3 4 5 6 6 6 7 7 8 9 18 23 17 8 7 10 13 13 14 16 19 26 28 28 25 19
11 11 10 10 9 9 9 9 8 7 7 6 5 3 1 2 3 4 5 6 6 6 7 7 7 8 10 21 23 22 12 8 9 12 13 14 15 21 14 21 25 21 26
10 10 10 10 9 9 9 9 8 7 6 5 4 2 1 2 3 4 5 6 6 6 7 7 8 8 12 21 22 23 11 8 9 11 13 14 14 16 21 17 16 15 15
9 9 10 11 10 10 10 10 8 7 6 4 3 2 2 3 4 5 6 6 6 7 7 8 8 9 11 19 22 22 8 8 9 11 13 16 16 24 30 21 18 18 14
9 10 11 12 11 10 10 9 7 6 5 4 3 1 1 3 4 5 5 5 6 7 8 8 8 8 8 17 22 23 7 9 10 11 12 19 23 28 31 21 18 17 15
10 11 11 10 9 9 8 8 7 6 5 4 1 1 2 3 4 4 4 6 6 7 7 8 7 8 11 17 22 24 11 10 12 13 12 12 27 31 32 28 14 20 23
10 10 10 9 7 7 8 8 7 6 4 2 1 2 3 4 4 5 5 6 6 7 7 7 8 6 8 14 19 25 23 22 15 14 12 15 30 32 31 22 23 30 24
8 8 10 9 7 6 7 8 6 5 3 1 1 3 4 4 4 5 6 6 5 5 6 6 7 7 6 10 22 24 26 27 17 14 24 29 30 27 17 21 28 23 12
8 8 9 8 7 6 7 7 6 4 2 1 2 3 4 5 5 4 4 5 5 6 6 6 8 8 7 7 8 9 12 18 16 13 18 23 23 20 21 19 15 10 11
6 6 7 7 7 6 6 6 5 3 2 2 3 4 4 4 5 5 5 6 5 8 10 6 6 8 9 13 25 20 14 14 16 18 9 8 10 10 11 11 10 11 12
6 7 7 8 7 6 6 5 4 3 2 2 3 3 3 4 5 6 6 11 13 19 20 19 17 13 18 26 27 28 29 29 28 18 10 11 11 12 13 13 13 13 12
Wind_Direction
115 125 130 112 93 85 95 99 101 100 99 102 100 96 89 78 67 61 57 53 49 46 42 33 34 22 23 24 12 4 349 345 337 330 317 296 305 348 1 342 331 329 334
125 130 119 97 91 86 85 90 95 96 95 96 95 100 101 92 85 71 61 57 50 43 45 36 31 21 21 22 8 8 355 343 347 343 327 328 319 358 337 304 322 316 321
139 142 116 95 82 75 78 88 89 94 99 103 105 107 98 94 83 81 75 65 59 46 41 38 33 23 26 17 2 12 3 341 334 350 340 333 308 314 272 330 306 313 327
138 135 118 101 89 81 78 86 93 101 111 118 113 111 105 102 99 98 98 88 72 57 38 36 34 29 27 18 1 5 345 345 329 327 336 300 298 304 302 296 299 311 307
136 128 119 113 101 88 83 83 83 79 77 79 85 95 96 98 91 79 71 82 75 63 40 32 29 31 26 9 355 348 335 327 317 316 313 307 303 296 303 301 296 293 289
132 123 117 112 104 95 89 88 86 78 73 75 76 83 89 86 79 69 57 57 64 55 38 27 19 23 16 353 341 337 325 313 307 305 301 298 299 305 302 301 305 302 293
137 135 134 130 125 118 112 105 99 90 82 79 76 74 78 77 70 66 58 52 47 40 24 19 7 4 354 342 340 331 316 307 308 301 293 291 290 293 295 297 302 302 299
144 145 144 136 134 134 127 116 108 101 93 88 85 79 76 77 71 63 60 57 51 35 14 6 359 354 347 341 335 321 313 311 306 305 301 295 289 287 289 295 304 305 303
150 149 145 139 139 139 130 122 115 109 104 99 93 83 78 76 72 65 56 46 34 22 10 359 353 343 337 332 328 316 310 306 300 297 293 289 284 282 282 286 293 299 304
153 151 146 142 141 135 127 126 121 115 105 95 95 93 82 77 75 67 51 32 19 13 356 351 342 332 326 324 322 315 308 306 302 300 297 295 294 289 286 284 282 284 294
157 152 147 141 134 127 128 125 120 115 112 111 101 91 79 64 66 64 46 20 7 359 349 340 331 325 320 322 321 318 312 306 308 311 308 304 302 298 294 290 287 284 287
152 148 143 137 135 138 137 133 131 121 114 108 101 97 88 66 57 50 31 13 358 345 335 329 324 320 319 318 315 313 310 313 320 315 309 307 308 303 298 292 292 293 292
148 144 142 144 148 149 145 142 133 124 118 112 108 101 82 62 47 31 13 356 340 328 322 320 316 311 309 307 306 304 308 323 315 310 309 308 305 301 297 298 295 292 293
153 151 151 154 154 151 147 141 130 123 118 109 101 90 78 63 35 13 352 336 325 316 310 306 300 299 300 302 300 301 314 307 305 307 305 303 301 300 301 298 290 292 294
161 159 157 157 153 148 143 136 127 123 123 114 104 92 73 55 19 356 336 320 310 306 297 296 297 298 302 303 309 313 311 308 308 305 301 300 302 304 305 304 304 303 300
162 156 156 155 152 147 141 130 126 126 122 115 110 104 69 24 1 335 313 302 297 294 296 299 300 302 308 315 316 316 309 306 307 306 304 301 301 304 309 310 307 307 308
155 156 156 151 145 140 134 131 125 121 115 112 112 109 61 359 338 318 307 300 299 302 307 305 306 304 306 315 316 317 318 306 302 302 304 307 308 312 303 301 307 310 307
146 146 141 134 130 125 123 117 116 116 117 121 127 122 59 336 322 308 302 304 307 308 307 306 303 301 306 316 319 319 317 297 294 299 302 304 305 305 306 306 310 305 302
120 123 122 121 118 119 117 115 117 121 127 127 118 90 27 330 310 303 305 309 311 309 304 300 301 301 306 317 319 319 305 299 299 301 305 306 304 305 312 315 309 307 304
96 106 110 112 113 115 119 122 129 132 128 115 97 53 327 300 295 299 307 311 312 303 303 303 302 302 305 316 321 322 309 309 308 306 304 307 310 311 315 314 311 311 310
95 102 107 111 117 123 125 125 124 118 109 102 83 310 295 294 296 303 303 301 296 297 301 304 307 309 315 323 326 324 322 315 315 314 313 310 313 315 316 319 316 311 316
103 108 110 111 115 121 120 116 113 110 110 115 266 288 296 302 305 299 293 293 297 302 306 311 312 312 320 326 323 322 323 323 319 314 311 309 314 318 323 325 318 320 326
114 114 117 115 109 105 110 114 113 113 113 112 305 310 314 304 298 297 299 301 301 302 308 312 314 316 315 316 319 319 320 321 319 310 311 315 320 325 326 320 322 326 320
123 123 122 120 112 100 95 106 113 115 113 359 328 321 311 304 306 304 301 302 305 307 305 306 308 308 306 304 304 306 314 319 317 310 311 320 323 324 322 321 320 315 310
123 125 128 126 124 118 111 111 115 108 60 0 334 319 313 315 313 306 301 309 297 303 312 303 300 307 311 311 319 323 321 320 315 322 322 319 321 320 318 317 316 316 318
121 118 117 121 125 127 124 120 108 83 39 347 324 318 319 318 311 309 311 312 313 319 321 321 318 314 314 319 323 326 326 325 328 333 327 322 320 319 320 320 319 319 318